Regional Weather Roundup
Issued by NWS Midland/Odessa, TX

Skip options and go directly to product.
Home | Oldest Version | Previous Version | Current Version | All | Text Only | Save Text | Print | Product List | Glossary On

Skip product version selection by date and time.   
094
ASUS44 KMAF 222310
RWRMAF
MIDLAND AREA WEATHER ROUNDUP
NATIONAL WEATHER SERVICE MIDLAND TX
600 PM CDT FRI MAY 22 2015

...IN SOUTHWEST TEXAS AND SOUTHEAST NEW MEXICO...

CITY           SKY/WX    TMP DP  RH WIND       PRES   REMARKS
ALPINE         PTSUNNY   81  60  47 E10G16    30.03F
ANDREWS        CLOUDY    70  64  83 E9        30.02F
ARTESIA        SUNNY     77  55  47 SE18      29.96F
BIG SPRING     SUNNY     79  64  59 E15       30.02F
CARLSBAD       SUNNY     78  60  53 SE13      29.94F
DRYDEN           N/A     77  65  66 SE12G17   29.98S
FORT STOCKTON  MOSUNNY   81  63  54 E26G33    29.95S
GUAD PASS      SUNNY     70  57  63 E24       30.04
HOBBS          PTSUNNY   68  64  88 E10       30.03F
MARFA          SUNNY     88  36  15 SW16G24   30.02F
MIDLAND AIRPK  MOSUNNY   81  63  54 SE12      30.00F
MIDLAND INTL   MOSUNNY   80  63  55 SE10      29.98F
ODESSA         MOSUNNY   79  62  56 SE9       29.99F
PECOS          SUNNY     79  63  59 E9G16     29.93F
PRESIDIO       FAIR      98  36  11 W7        29.82F
SEMINOLE       PTSUNNY   67  64  89 E6        30.04F
SNYDER         CLOUDY    67  64  89 NE7       30.05F
WINK           SUNNY     80  61  52 SE14      29.94F
$$
...OTHER STATIONS IN TEXAS...

CITY           SKY/WX    TMP DP  RH WIND       PRES   REMARKS
ABILENE        PTSUNNY   73  66  78 SE14      30.05F
AMARILLO       CLOUDY    65  57  75 S17       30.05F
AUSTIN         CLOUDY    77  71  82 SE10      30.04F
BROWNSVILLE    MOSUNNY   85  74  69 SE16      29.98S
CORPUS CHRISTI PTSUNNY   83  75  77 SE15      30.00S
DALLAS FTW     CLOUDY    67  62  84 NE7       30.09S
DEL RIO        MOSUNNY   84  70  62 E15       29.95F
EL PASO        PTSUNNY   89  16   7 SW21      29.87F
HOUSTON INT    PTSUNNY   77  68  73 SE13      30.10S
LUBBOCK        CLOUDY    63  59  87 SE9       30.06F
SAN ANGELO     PTSUNNY   81  68  64 SE13      30.01F
SAN ANTONIO    PTSUNNY   86  73  65 SE15      30.02F
WACO           CLOUDY    75  67  76 SE13      30.08F
WICHITA FALLS  NOT AVBL
$$
...OTHER LOCATIONS IN NEW MEXICO...

CITY           SKY/WX    TMP DP  RH WIND       PRES   REMARKS
ALAMAGORDO     MOSUNNY   82  32  16 S20G25    29.92F
ALBUQUERQUE    MOSUNNY   74  29  19 S24G32    29.94F
CANNON AFB     NOT AVBL
CLOVIS         PTSUNNY   66  54  63 S13       30.05F
HOLLOMAN AFB   MOSUNNY   83  36  18 S16G30    29.89F
ROSWELL        SUNNY     76  54  46 SE17G25   29.95F
RUIDOSO        MOSUNNY   63  50  63 SE15      30.11S
SANTA FE       CLOUDY    69  32  25 SE24G31   30.00F
TRUTH OR CONSE MOSUNNY   81  16   9 S25G35    29.90F
TUCUMCARI      SUNNY     72  51  47 S15       29.99F
$$

USA.gov is the U.S. government's official web portal to all federal, state and local government web resources and services.